Time,TemperatureF,DewpointF,PressureIn,WindDirection,WindDirectionDegrees,WindSpeedMPH,WindSpeedGustMPH,Humidity,HourlyPrecipIn,Conditions,Clouds,dailyrainin,SolarRadiationWatts/m^2,SoftwareType,DateUTC
2013-03-21 00:02:00,42.0,-99.9,-100.00,ENE,60,1.0,13.0,0,0.00,,,0.34,1.000000,,2013-03-21 07:02:00,
2013-03-21 00:33:00,42.0,-99.9,-100.00,WNW,294,1.0,7.0,0,0.00,,,0.33,2.000000,,2013-03-21 07:33:00,
2013-03-21 00:43:00,42.0,-99.9,-100.00,WNW,294,1.0,7.0,0,0.00,,,0.33,2.000000,,2013-03-21 07:43:00,
2013-03-21 00:53:00,42.0,-99.9,-100.00,WNW,294,1.0,7.0,0,0.00,,,0.33,2.000000,,2013-03-21 07:53:00,
2013-03-21 01:02:00,42.0,-99.9,-100.00,WNW,294,1.0,7.0,0,0.00,,,0.33,2.000000,,2013-03-21 08:02:00,
2013-03-21 01:33:00,44.0,-99.9,-100.00,NW,316,1.0,13.0,0,0.00,,,0.32,2.000000,,2013-03-21 08:33:00,
2013-03-21 01:43:00,44.0,-99.9,-100.00,NW,316,1.0,13.0,0,0.00,,,0.32,2.000000,,2013-03-21 08:43:00,
2013-03-21 01:52:00,44.0,-99.9,-100.00,NW,316,1.0,13.0,0,0.00,,,0.32,2.000000,,2013-03-21 08:52:00,
2013-03-21 02:02:00,44.0,-99.9,-100.00,NW,316,1.0,13.0,0,0.00,,,0.32,2.000000,,2013-03-21 09:02:00,
2013-03-21 02:33:00,44.0,-99.9,-100.00,NW,314,1.0,9.0,0,0.00,,,0.32,2.000000,,2013-03-21 09:33:00,
2013-03-21 02:43:00,44.0,-99.9,-100.00,NW,314,1.0,9.0,0,0.00,,,0.32,2.000000,,2013-03-21 09:43:00,
2013-03-21 02:53:00,44.0,-99.9,-100.00,NW,314,1.0,9.0,0,0.00,,,0.32,2.000000,,2013-03-21 09:53:00,
2013-03-21 03:03:00,44.0,-99.9,-100.00,NW,314,1.0,9.0,0,0.00,,,0.32,2.000000,,2013-03-21 10:03:00,
2013-03-21 03:34:00,42.0,-99.9,-100.00,SSW,194,3.0,13.0,0,0.00,,,0.32,2.000000,,2013-03-21 10:34:00,
2013-03-21 03:43:00,42.0,-99.9,-100.00,SSW,194,3.0,13.0,0,0.00,,,0.32,2.000000,,2013-03-21 10:43:00,
2013-03-21 03:53:00,42.0,-99.9,-100.00,SSW,194,3.0,13.0,0,0.00,,,0.32,2.000000,,2013-03-21 10:53:00,
2013-03-21 04:03:00,42.0,-99.9,-100.00,SSW,194,3.0,13.0,0,0.00,,,0.32,2.000000,,2013-03-21 11:03:00,
2013-03-21 04:33:00,42.0,-99.9,-100.00,NW,326,6.0,10.0,0,0.00,,,0.32,1.000000,,2013-03-21 11:33:00,
2013-03-21 04:43:00,42.0,-99.9,-100.00,NW,326,6.0,10.0,0,0.00,,,0.32,1.000000,,2013-03-21 11:43:00,
2013-03-21 04:53:00,42.0,-99.9,-100.00,NW,326,6.0,10.0,0,0.00,,,0.32,1.000000,,2013-03-21 11:53:00,
2013-03-21 05:03:00,42.0,-99.9,-100.00,NW,326,6.0,10.0,0,0.00,,,0.32,1.000000,,2013-03-21 12:03:00,
2013-03-21 05:33:00,43.0,-99.9,-100.00,North,358,1.0,11.0,0,0.00,,,0.32,1.000000,,2013-03-21 12:33:00,
2013-03-21 05:44:00,43.0,-99.9,-100.00,North,358,1.0,11.0,0,0.00,,,0.32,1.000000,,2013-03-21 12:44:00,
2013-03-21 05:53:00,43.0,-99.9,-100.00,North,358,1.0,11.0,0,0.00,,,0.32,1.000000,,2013-03-21 12:53:00,
2013-03-21 06:03:00,43.0,-99.9,-100.00,North,358,1.0,11.0,0,0.00,,,0.32,1.000000,,2013-03-21 13:03:00,
2013-03-21 06:33:00,41.0,-99.9,-100.00,SSW,205,9.0,18.0,0,0.01,,,0.30,1.000000,,2013-03-21 13:33:00,
2013-03-21 06:43:00,41.0,-99.9,-100.00,SSW,205,9.0,18.0,0,0.01,,,0.30,1.000000,,2013-03-21 13:43:00,
2013-03-21 06:53:00,41.0,-99.9,-100.00,SSW,205,9.0,18.0,0,0.01,,,0.30,1.000000,,2013-03-21 13:53:00,
2013-03-21 07:02:00,41.0,-99.9,-100.00,SSW,205,9.0,18.0,0,0.01,,,0.30,1.000000,,2013-03-21 14:02:00,
2013-03-21 07:04:00,39.0,-99.9,-100.00,SSE,168,0.0,19.0,0,0.01,,,0.21,1.000000,,2013-03-21 14:04:00,
2013-03-21 07:32:00,39.0,-99.9,-100.00,SSE,168,0.0,19.0,0,0.01,,,0.21,1.000000,,2013-03-21 14:32:00,
2013-03-21 07:43:00,39.0,-99.9,-100.00,SSE,168,0.0,19.0,0,0.01,,,0.21,1.000000,,2013-03-21 14:43:00,
2013-03-21 07:53:00,39.0,-99.9,-100.00,SSE,168,0.0,19.0,0,0.01,,,0.21,1.000000,,2013-03-21 14:53:00,
2013-03-21 08:33:00,39.0,-99.9,-100.00,NNE,12,2.0,17.0,0,0.04,,,-99.99,6.000000,,2013-03-21 15:33:00,
2013-03-21 08:43:00,39.0,-99.9,-100.00,NNE,12,2.0,17.0,0,0.04,,,-99.99,6.000000,,2013-03-21 15:43:00,
2013-03-21 08:53:00,39.0,-99.9,-100.00,NNE,12,2.0,17.0,0,0.04,,,-99.99,6.000000,,2013-03-21 15:53:00,
2013-03-21 09:03:00,39.0,-99.9,-100.00,NNE,12,2.0,17.0,0,0.04,,,-99.99,6.000000,,2013-03-21 16:03:00,
2013-03-21 09:33:00,42.0,-99.9,-100.00,SSE,160,8.0,10.0,0,0.00,,,0.13,97.000000,,2013-03-21 16:33:00,
2013-03-21 09:43:00,42.0,-99.9,-100.00,SSE,160,8.0,10.0,0,0.00,,,0.13,97.000000,,2013-03-21 16:43:00,
2013-03-21 09:53:00,42.0,-99.9,-100.00,SSE,160,8.0,10.0,0,0.00,,,0.13,97.000000,,2013-03-21 16:53:00,
2013-03-21 10:03:00,42.0,-99.9,-100.00,SSE,160,8.0,10.0,0,0.00,,,0.13,97.000000,,2013-03-21 17:03:00,
2013-03-21 10:33:00,42.0,-99.9,-100.00,SSE,159,4.0,13.0,0,0.00,,,0.13,125.000000,,2013-03-21 17:33:00,
2013-03-21 10:43:00,42.0,-99.9,-100.00,SSE,159,4.0,13.0,0,0.00,,,0.13,125.000000,,2013-03-21 17:43:00,
2013-03-21 10:53:00,42.0,-99.9,-100.00,SSE,159,4.0,13.0,0,0.00,,,0.13,125.000000,,2013-03-21 17:53:00,
2013-03-21 11:02:00,42.0,-99.9,-100.00,SSE,159,4.0,13.0,0,0.00,,,0.13,125.000000,,2013-03-21 18:02:00,
2013-03-21 11:33:00,42.0,-99.9,-100.00,West,271,6.0,9.0,0,0.01,,,0.14,183.000000,,2013-03-21 18:33:00,
2013-03-21 11:43:00,42.0,-99.9,-100.00,West,271,6.0,9.0,0,0.01,,,0.14,183.000000,,2013-03-21 18:43:00,
2013-03-21 11:53:00,42.0,-99.9,-100.00,West,271,6.0,9.0,0,0.01,,,0.14,183.000000,,2013-03-21 18:53:00,
2013-03-21 12:03:00,42.0,-99.9,-100.00,West,271,6.0,9.0,0,0.01,,,0.14,183.000000,,2013-03-21 19:03:00,
2013-03-21 12:32:00,48.0,-99.9,-100.00,WNW,283,1.0,14.0,0,0.00,,,0.14,327.000000,,2013-03-21 19:32:00,
2013-03-21 12:43:00,48.0,-99.9,-100.00,WNW,283,1.0,14.0,0,0.00,,,0.14,327.000000,,2013-03-21 19:43:00,
2013-03-21 12:53:00,48.0,-99.9,-100.00,WNW,283,1.0,14.0,0,0.00,,,0.14,327.000000,,2013-03-21 19:53:00,
2013-03-21 13:02:00,48.0,-99.9,-100.00,WNW,283,1.0,14.0,0,0.00,,,0.14,327.000000,,2013-03-21 20:02:00,
2013-03-21 13:33:00,50.0,-99.9,-100.00,NW,305,6.0,10.0,0,0.00,,,0.13,635.000000,,2013-03-21 20:33:00,
2013-03-21 13:43:00,50.0,-99.9,-100.00,NW,305,6.0,10.0,0,0.00,,,0.13,635.000000,,2013-03-21 20:43:00,
2013-03-21 13:53:00,50.0,-99.9,-100.00,NW,305,6.0,10.0,0,0.00,,,0.13,635.000000,,2013-03-21 20:53:00,
2013-03-21 14:03:00,50.0,-99.9,-100.00,NW,305,6.0,10.0,0,0.00,,,0.13,635.000000,,2013-03-21 21:03:00,
2013-03-21 14:33:00,48.0,-99.9,-100.00,NW,321,7.0,14.0,0,0.00,,,0.13,553.000000,,2013-03-21 21:33:00,
2013-03-21 14:43:00,48.0,-99.9,-100.00,NW,321,7.0,14.0,0,0.00,,,0.13,553.000000,,2013-03-21 21:43:00,
2013-03-21 14:53:00,48.0,-99.9,-100.00,NW,321,7.0,14.0,0,0.00,,,0.13,553.000000,,2013-03-21 21:53:00,
2013-03-21 15:03:00,48.0,-99.9,-100.00,NW,321,7.0,14.0,0,0.00,,,0.13,553.000000,,2013-03-21 22:03:00,
2013-03-21 15:34:00,48.0,-99.9,-100.00,NW,311,8.0,14.0,0,0.00,,,0.13,652.000000,,2013-03-21 22:34:00,
2013-03-21 15:43:00,48.0,-99.9,-100.00,NW,311,8.0,14.0,0,0.00,,,0.13,652.000000,,2013-03-21 22:43:00,
2013-03-21 15:53:00,48.0,-99.9,-100.00,NW,311,8.0,14.0,0,0.00,,,0.13,652.000000,,2013-03-21 22:53:00,
2013-03-21 16:03:00,48.0,-99.9,-100.00,NW,311,8.0,14.0,0,0.00,,,0.13,652.000000,,2013-03-21 23:03:00,
2013-03-21 16:22:00,49.0,-99.9,-100.00,North,356,6.0,13.0,0,0.00,,,0.13,513.000000,,2013-03-21 23:22:00,
2013-03-21 16:33:00,49.0,-99.9,-100.00,North,356,6.0,13.0,0,0.00,,,0.13,513.000000,,2013-03-21 23:33:00,
2013-03-21 16:43:00,49.0,-99.9,-100.00,North,356,6.0,13.0,0,0.00,,,0.13,513.000000,,2013-03-21 23:43:00,
2013-03-21 16:53:00,49.0,-99.9,-100.00,North,356,6.0,13.0,0,0.00,,,0.13,513.000000,,2013-03-21 23:53:00,
2013-03-21 17:03:00,49.0,-99.9,-100.00,North,356,6.0,13.0,0,0.00,,,0.13,513.000000,,2013-03-22 00:03:00,
2013-03-21 17:32:00,50.0,-99.9,-100.00,WNW,301,5.0,12.0,0,0.00,,,0.13,387.000000,,2013-03-22 00:32:00,
2013-03-21 17:42:00,50.0,-99.9,-100.00,WNW,301,5.0,12.0,0,0.00,,,0.13,387.000000,,2013-03-22 00:42:00,
2013-03-21 17:53:00,50.0,-99.9,-100.00,WNW,301,5.0,12.0,0,0.00,,,0.13,387.000000,,2013-03-22 00:53:00,
2013-03-21 18:03:00,50.0,-99.9,-100.00,WNW,301,5.0,12.0,0,0.00,,,0.13,387.000000,,2013-03-22 01:03:00,
2013-03-21 18:33:00,46.0,-99.9,-100.00,NW,312,3.0,9.0,0,0.00,,,0.07,171.000000,,2013-03-22 01:33:00,
2013-03-21 18:43:00,46.0,-99.9,-100.00,NW,312,3.0,9.0,0,0.00,,,0.07,171.000000,,2013-03-22 01:43:00,
2013-03-21 18:53:00,46.0,-99.9,-100.00,NW,312,3.0,9.0,0,0.00,,,0.07,171.000000,,2013-03-22 01:53:00,
2013-03-21 19:03:00,46.0,-99.9,-100.00,NW,312,3.0,9.0,0,0.00,,,0.07,171.000000,,2013-03-22 02:03:00,
2013-03-21 19:32:00,41.0,-99.9,-100.00,NNW,342,8.0,20.0,0,0.01,,,0.08,46.000000,,2013-03-22 02:32:00,
2013-03-21 19:43:00,41.0,-99.9,-100.00,NNW,342,8.0,20.0,0,0.01,,,0.08,46.000000,,2013-03-22 02:43:00,
2013-03-21 19:53:00,41.0,-99.9,-100.00,NNW,342,8.0,20.0,0,0.01,,,0.08,46.000000,,2013-03-22 02:53:00,
2013-03-21 20:02:00,41.0,-99.9,-100.00,NNW,342,8.0,20.0,0,0.01,,,0.08,46.000000,,2013-03-22 03:02:00,
2013-03-21 20:04:00,41.0,-99.9,-100.00,NNW,327,4.0,14.0,0,0.00,,,0.08,7.000000,,2013-03-22 03:04:00,
2013-03-21 20:33:00,41.0,-99.9,-100.00,NNW,327,4.0,14.0,0,0.00,,,0.08,7.000000,,2013-03-22 03:33:00,
2013-03-21 20:43:00,41.0,-99.9,-100.00,NNW,327,4.0,14.0,0,0.00,,,0.08,7.000000,,2013-03-22 03:43:00,
2013-03-21 20:53:00,41.0,-99.9,-100.00,NNW,327,4.0,14.0,0,0.00,,,0.08,7.000000,,2013-03-22 03:53:00,
2013-03-21 21:32:00,41.0,-99.9,-100.00,NNE,16,4.0,17.0,0,0.00,,,0.08,1.000000,,2013-03-22 04:32:00,
2013-03-21 21:43:00,41.0,-99.9,-100.00,NNE,16,4.0,17.0,0,0.00,,,0.08,1.000000,,2013-03-22 04:43:00,
2013-03-21 21:53:00,41.0,-99.9,-100.00,NNE,16,4.0,17.0,0,0.00,,,0.08,1.000000,,2013-03-22 04:53:00,
2013-03-21 22:02:00,41.0,-99.9,-100.00,NNE,16,4.0,17.0,0,0.00,,,0.08,1.000000,,2013-03-22 05:02:00,
2013-03-21 22:32:00,37.0,-99.9,-100.00,SSE,149,0.0,8.0,0,0.00,,,0.08,1.000000,,2013-03-22 05:32:00,
2013-03-21 22:42:00,37.0,-99.9,-100.00,SSE,149,0.0,8.0,0,0.00,,,0.08,1.000000,,2013-03-22 05:42:00,
2013-03-21 22:52:00,37.0,-99.9,-100.00,SSE,149,0.0,8.0,0,0.00,,,0.08,1.000000,,2013-03-22 05:52:00,
2013-03-21 23:02:00,37.0,-99.9,-100.00,SSE,149,0.0,8.0,0,0.00,,,0.08,1.000000,,2013-03-22 06:02:00,
2013-03-21 23:32:00,40.0,-99.9,-100.00,East,96,0.0,11.0,0,0.02,,,0.10,1.000000,,2013-03-22 06:32:00,
2013-03-21 23:43:00,40.0,-99.9,-100.00,East,96,0.0,11.0,0,0.02,,,0.10,1.000000,,2013-03-22 06:43:00,
2013-03-21 23:52:00,40.0,-99.9,-100.00,East,96,0.0,11.0,0,0.02,,,0.10,1.000000,,2013-03-22 06:52:00,